Погода в Чистике

Россия / Смоленская область     54°56′58″N   31°11′48″E
темп.,
°C
ветер,
м/с
пор.,
м/с
влажн.,
%
обл.,
%
осадки,
мм/ч
давл.,
гПа
погр.,
м
15 апреля, чт
чт1500:00+8ссв5894100 0.3 1017267
03:00+8ссв4995100 0.3 1017391
06:00+8св51094100 0.0 1016463
09:00+8св51094100 0.9 1016321
12:00+9св61092100 1.9 1016440
15:00+12св698088 2.1 1015868
18:00+10св6128672 0.2 1015617
21:00+9всв7148884 0.8 1015640
16 апреля, пт
пт1600:00+9св71291100 1.4 1015496
03:00+8всв71491100 1.8 1015615
06:00+8всв61392100 3.0 1015644
09:00+10в7128792 3.1 1017643
12:00+11в7979100 0.0 1017914
15:00+11всв7977100 0.6 1018746
18:00+11всв5108268 0.6 1018707
21:00+10св51195100 3.6 1018630
17 апреля, сб
сб1700:00+9в3795100 11.9 1019453
03:00+9в7119198 15.8 1019557
06:00+9всв599498 0.1 1021538
09:00+9всв5888100 0.1 1022702
12:00+9всв4888100 0.0 1023619
15:00+11всв4781100 0.1 1024986
18:00+10всв4981100 0.0 1024612
21:00+10всв4108193 0.0 1025379
18 апреля, вс
вс1800:00+8св4108851 0.0 1026274
03:00+6св4108596 0.0 1026244
06:00+4всв410836 0.0 1027238
09:00+8в596621 0.0 1027454
12:00+12в67554 0.0 1027970
15:00+14в67514 0.0 10271374
18:00+13в57575 0.0 10271250
21:00+8всв49683 0.0 1028173
19 апреля, пн
пн1900:00+7в38760 0.0 1029144
03:00+5в36790 0.0 103092
06:00+4в37830 0.0 1030126
09:00+9вюв57650 0.0 1030395
12:00+12вюв67475 0.0 10301722
15:00+14вюв674487 0.0 10292204
18:00+11в6106199 0.0 1028759
21:00+9в61268100 0.0 1029613